Location: Manosque
(43.8357°N, 5.7909°E)
Time: 04:23:24
(UTC+01:00)

ISS - Pass Details

Date: 29 October 2019
Orbit: 412 x 421 km, 51.6° (Epoch: 14 November)

Event Time Altitude Azimuth Distance (km) Brightness Sun altitude
Exits shadow 04:57:47 41° 77° (ENE) 625 -2.5 -24.1°
Drops below altitude 10° 05:00:09 10° 62° (ENE) 1,506 -0.1 -23.7°
Sets 05:02:15 0° 60° (ENE) 2,373 1.1 -23.3°
